Weather History for Hollywood, FL

Change the Weather History Date:

Sunday, March 24, 2013

  Actual Average (KFLL) Record (KFLL)
Temperature  
Mean Temperature 83 °F 74 °F  
Max Temperature 91 °F 81 °F 94 °F (1948)
Min Temperature 75 °F 67 °F 45 °F (1968)
Degree Days  
Heating Degree Days 0 0  
Month to date heating degree days 7  
Since 1 July heating degree days 109  
Cooling Degree Days 18 9  
Month to date cooling degree days 191  
Year to date cooling degree days 547  
Growing Degree Days 33 (Base 50)    
Moisture  
Dew Point 71 °F    
Average Humidity 75    
Maximum Humidity 94    
Minimum Humidity 46    
Precipitation  
Precipitation 0.00 in 0.10 in 1.80 in (1937)
Month to date precipitation 2.52  
Year to date precipitation 9.11  
Snow  
Snow 0.00 in - - ()
Month to date snowfall  
Since 1 July snowfall  
Snow Depth -    
Sea Level Pressure  
Sea Level Pressure 29.81 in    
Wind  
Wind Speed 11 mph (SSW)    
Max Wind Speed 25 mph    
Max Gust Speed 40 mph    
Visibility 10 miles    
Events      
T = Trace of Precipitation, MM = Missing Value Source: NWS Daily Summary

Daily Weather History Graph

Daily Weather History Graph

Search for Another Location

Airport:

Trip Planner

Search our weather history database for the weather conditions in past years. The results will help you decide how hot, cold, wet, or windy it might be!

Date:

Astronomy

Mar. 24, 2013 Rise Set
Actual Time 7:20 AM EDT 7:34 PM EDT
Civil Twilight 6:57 AM EDT 7:57 PM EDT
Nautical Twilight 6:30 AM EDT 8:24 PM EDT
Astronomical Twilight 6:03 AM EDT 8:51 PM EDT
Moon 5:12 PM EDT (3/24) 5:15 AM EDT (3/24)
Length of Visible Light 12h 59m
Length of Day
12h 13m
Waxing Gibbous, 91% of the Moon is Illuminated
Mar 24
Waxing Gibbous
Mar 27
Full
Apr 3
Last Quarter
Apr 10
New
Apr 18
First Quarter

Hourly Weather History & Observations

Time (EDT) Temp. Heat Index Dew Point Humidity Pressure Visibility Wind Dir Wind Speed Gust Speed Precip Events Conditions
12:53 AM 75.9 °F - 72.0 °F 87% 29.91 in 10.0 mi SE 4.6 mph - N/A   Overcast
1:53 AM 75.9 °F - 72.0 °F 87% 29.90 in 10.0 mi SE 4.6 mph - N/A   Mostly Cloudy
2:53 AM 75.0 °F - 73.0 °F 94% 29.87 in 10.0 mi SSE 4.6 mph - N/A   Partly Cloudy
3:00 AM 75.2 °F - 73.4 °F 94% 29.87 in 10.0 mi SSE 4.6 mph - N/A   Scattered Clouds
3:53 AM 75.0 °F - 73.0 °F 94% 29.85 in 10.0 mi SSE 5.8 mph - N/A   Mostly Cloudy
4:28 AM 75.2 °F - 73.4 °F 94% 29.85 in 10.0 mi South 5.8 mph - N/A   Scattered Clouds
4:53 AM 75.0 °F - 73.0 °F 94% 29.84 in 10.0 mi South 4.6 mph - N/A   Partly Cloudy
5:53 AM 75.0 °F - 73.0 °F 94% 29.84 in 10.0 mi South 6.9 mph - N/A   Clear
6:53 AM 75.0 °F - 73.0 °F 94% 29.83 in 10.0 mi South 9.2 mph - N/A   Clear
7:53 AM 75.0 °F - 72.0 °F 90% 29.82 in 10.0 mi South 10.4 mph - N/A   Clear
8:51 AM 77.0 °F - 73.4 °F 89% 29.80 in 10.0 mi South 19.6 mph 25.3 mph N/A   Mostly Cloudy
8:53 AM 77.0 °F - 72.0 °F 84% 29.81 in 10.0 mi South 13.8 mph 25.3 mph N/A   Mostly Cloudy
9:08 AM 78.8 °F - 71.6 °F 78% 29.81 in 10.0 mi South 18.4 mph 24.2 mph N/A   Mostly Cloudy
9:53 AM 82.0 °F 86.7 °F 72.0 °F 71% 29.80 in 10.0 mi South 19.6 mph 27.6 mph N/A   Mostly Cloudy
10:40 AM 82.4 °F 87.2 °F 71.6 °F 70% 29.80 in 10.0 mi South 18.4 mph 32.2 mph N/A   Mostly Cloudy
10:53 AM 82.9 °F 87.0 °F 70.0 °F 65% 29.80 in 10.0 mi SSW 20.7 mph 33.4 mph N/A   Mostly Cloudy
11:53 AM 87.1 °F 91.3 °F 69.1 °F 55% 29.80 in 10.0 mi SW 25.3 mph 33.4 mph N/A   Mostly Cloudy
12:53 PM 88.0 °F 92.1 °F 69.1 °F 53% 29.80 in 10.0 mi SW 23.0 mph 31.1 mph N/A   Mostly Cloudy
1:53 PM 91.0 °F 95.6 °F 69.1 °F 48% 29.78 in 10.0 mi SW 23.0 mph 32.2 mph N/A   Scattered Clouds
2:53 PM 90.0 °F 93.6 °F 68.0 °F 48% 29.76 in 10.0 mi SW 23.0 mph 34.5 mph N/A   Mostly Cloudy
3:53 PM 90.0 °F 92.8 °F 66.9 °F 46% 29.75 in 10.0 mi WSW 23.0 mph 38.0 mph N/A   Scattered Clouds
4:53 PM 88.0 °F 91.4 °F 68.0 °F 51% 29.73 in 10.0 mi WSW 23.0 mph 40.3 mph N/A   Scattered Clouds
5:53 PM 86.0 °F 90.1 °F 69.1 °F 57% 29.74 in 10.0 mi WSW 19.6 mph 32.2 mph N/A   Clear
6:53 PM 82.9 °F 86.5 °F 69.1 °F 63% 29.75 in 10.0 mi SW 19.6 mph 28.8 mph N/A   Clear
7:53 PM 80.1 °F 82.9 °F 69.1 °F 69% 29.77 in 10.0 mi WSW 13.8 mph 21.9 mph N/A   Clear
8:53 PM 79.0 °F - 70.0 °F 74% 29.79 in 10.0 mi WSW 6.9 mph - N/A   Partly Cloudy
9:53 PM 79.0 °F - 69.1 °F 72% 29.81 in 10.0 mi SW 9.2 mph - N/A   Overcast
10:53 PM 78.1 °F - 70.0 °F 76% 29.82 in 10.0 mi WSW 8.1 mph - 0.00 in   Overcast
11:53 PM 77.0 °F - 72.0 °F 84% 29.80 in 10.0 mi SSW 9.2 mph - 0.00 in   Overcast